Regional Weather Roundup
Issued by NWS

Home | Current Version | Previous Version | Graphics & Text | Print | Product List | Glossary On
Versions: 1 2 3 4 5 6 7 8 9 10 11 12 13 14 15 16 17 18 19 20 21 22 23 24 25 26 27 28 29 30 31 32 33 34 35 36 37 38 39 40 41 42 43 44 45 46 47 48 49 50
000
ASUS43 KFSD 172110
RWRSD

WEATHER ROUNDUP FOR SOUTH DAKOTA
NATIONAL WEATHER SERVICE SIOUX FALLS SD
300 PM CST WED DEC 17 2014

NOTE: "FAIR" INDICATES FEW OR NO CLOUDS BELOW 12,000 FEET WITH NO
SIGNIFICANT WEATHER AND/OR OBSTRUCTIONS TO VISIBILITY.


SDZ001>005-009-010-012>017-172200-
NORTHWEST AND NORTH CENTRAL SOUTH DAKOTA

CITY           SKY/WX    TMP DP  RH WIND       PRES   REMARKS
BUFFALO          N/A     19  16  88 SE12      29.94F WCI   7
FAITH            N/A     17  14  88 E12       30.06F WCI   4
MOBRIDGE       MOSUNNY   20  11  68 S12       30.16F WCI   8
$$

SDZ012>016-024>037-041>051-057-063-072>074-172200-
SOUTHWEST AND SOUTH CENTRAL SOUTH DAKOTA

CITY           SKY/WX    TMP DP  RH WIND       PRES   REMARKS
RAPID CTY ARPT CLOUDY    23  20  88 E6        29.97F WCI  16
PIERRE         CLOUDY    18  14  84 SE15      30.15F WCI   4
CUSTER         SUNNY     34  18  52 SW8       29.84F WCI  27
ELLSWORTH AFB  CLOUDY    22  21  94 SE5       29.97  FOG     WCI  16
PHILIP         CLOUDY    24  18  77 E10       30.07F WCI  14
PINE RIDGE     CLOUDY    26  21  81 S10       29.97F WCI  16
SPEARFISH      FAIR      19  18  93 CALM      29.94F FOG
$$

SDZ004>011-016>023-039-040-172200-
NORTHEAST SOUTH DAKOTA

CITY           SKY/WX    TMP DP  RH WIND       PRES   REMARKS
ABERDEEN       SUNNY     20  11  68 E7        30.26F WCI  11
WATERTOWN      SUNNY     20  13  74 N5        30.23F WCI  13
SISSETON         N/A     16  10  77 N5        30.29F WCI   9
$$

SDZ017-020-022-023-036>040-048>070-172200-
SOUTHEAST SOUTH DAKOTA

CITY           SKY/WX    TMP DP  RH WIND       PRES   REMARKS
SIOUX FALLS    PTSUNNY   19   9  65 NE5       30.25F WCI  12
HURON          MOSUNNY   14  10  84 SE3       30.27S
CHAMBERLAIN    CLOUDY    17  13  86 SE12      30.19F WCI   4
MITCHELL         N/A     18  13  80 MISG      30.26F
YANKTON        SUNNY     18  10  73 E5        30.28S WCI  11
$$

ABBREVIATIONS USED IN REMARKS
   TC - TEMPERATURE IN CELSIUS
  WCI - WIND CHILL INDEX
   HX - HEAT INDEX
  VSB - VISIBILITY




USA.gov is the U.S. government's official web portal to all federal, state and local government web resources and services.